www.pogodaiklimat.ru

ПОГОДА в Пало Альто, CA

  • Прогноз погоды в Пало Альто
  • Монитор погоды в Пало Альто
  • Климат в Пало Альто

АРХИВ ПОГОДЫ в Пало Альто

Время (UTC), дата Ветер
(напр.,м/с)
 
Видим.   Явления Облачность Т
(С)
Тd
(С)
f
(%)
Тe
(С)
Тes
(С)
Комфортность

P
(гПа)

Po
(гПа)
Тmin
(С)
Tmax
(С)
R
(мм)
SD
(см)
02:47 22.03 З  16 км    2/2 900 м  +12.0  +6.0  67  +11  +11      1020.6         
12:47 22.03 ЮВ  16 км  слабый дождь  10/10 720 м  +9.0  +8.0  93  +6  +6      1021.0         
13:47 22.03 ЮВ  16 км  слабый дождь  10/10 720 м  +9.0  +8.0  93  +6  +6      1021.7         
14:47 22.03 Ю  16 км  слабый дождь  10/10 720 м  +11.0  +8.0  82  +9  +9      1022.0         
16:47 22.03 ЮВ  16 км  слабый дождь  10/10 900 м  +12.0  +8.0  76  +9  +9      1022.3         
17:47 22.03 ЮВ  16 км    10/10 750 м  +13.0  +8.0  72  +11  +11      1022.0         
19:47 22.03 В  16 км    10/5 1050 м
[средняя] 
+14.0  +9.0  72  +12  +13      1021.7         
20:47 22.03 ЮВ  16 км    10/8 840 м
[средняя] 
+14.0  +10.0  77  +12  +13      1021.3         
21:47 22.03 ЮВ  16 км    10/10 1380 м  +14.0  +10.0  77  +12  +12      1021.3         
22:47 22.03 ЮВ  13 км  дождь  10/10 810 м  +14.0  +10.0  77  +13  +13      1021.3         
23:55 22.03 ЮВ  10 км  ливневые осадки  10/10 450 м  +13.0  +11.0  88  +10  +10      1020.6         
00:55 23.03 ЮВ  10 км  ливневые осадки  10/10 450 м  +13.0  +11.0  88  +11  +11      1020.6         
01:47 23.03 ЮВ  16 км  ливневые осадки  10/10 1500 м  +13.0  +12.0  94  +11  +11      1020.3         
02:47 23.03 ЮВ  16 км    10/10 1500 м  +13.0  +11.0  88  +10  +10      1020.3         
12:47 23.03 З  16 км    10/8 600 м
[средняя] 
+11.0  +11.0  100  +9  +9      1020.6         
13:47 23.03 З  16 км    8/8 600 м  +11.0  +9.0  87  +9  +9      1021.3         
14:47 23.03 З  16 км    5/5 1110 м  +12.0  +9.0  82  +11  +11      1022.0         
15:47 23.03 СЗ  16 км    5/2 600 м
[средняя] 
+12.0  +8.0  76  +12  +14      1022.3         
16:47 23.03 СЗ  16 км    5/5 840 м  +14.0  +8.0  67  +12  +14      1022.7         
17:47 23.03 СЗ  16 км    5/5 840 м  +15.0  +9.0  67  +14  +16      1022.7         
18:47 23.03 СЗ  16 км    5/5 1200 м  +16.0  +9.0  63  +15  +17      1022.7         
19:47 23.03 С  16 км    5/5 1200 м  +16.0  +8.0  59  +14  +16      1022.3         
20:47 23.03 СЗ  16 км    5/5 1200 м  +16.0  +8.0  59  +14  +15      1022.3         
21:47 23.03 З  16 км    5/5 900 м  +16.0  +6.0  51  +14  +16      1022.3         
22:47 23.03 З  16 км    5/5 900 м  +16.0  +7.0  55  +14  +15      1022.7         
01:47 24.03 З  16 км    ясно  +12.0  +7.0  71  +9  +9      1023.0         
02:47 24.03 З  16 км    ясно  +11.0  +7.0  76  +9  +9      1023.7         
12:47 24.03   16 км    ясно  +5.0  +4.0  93  +4  +4      1022.7         
15:47 24.03 нст  16 км    ясно  +10.0  +6.0  76  +8  +11      1023.7         
16:47 24.03 нст  16 км    ясно  +12.0  +7.0  71  +11  +17      1024.0         
17:47 24.03 нст  16 км    ясно  +13.0  +8.0  72  +12  +21      1023.7         
18:47 24.03 СВ  16 км    2/2 1050 м  +14.0  +6.0  59  +13  +22      1023.0         
19:47 24.03 С  16 км    2/2 1050 м  +16.0  +7.0  55  +16  +25      1022.3         
20:47 24.03 С  16 км    10/0 6000 м
[средняя] 
+16.0  +7.0  55  +16  +19      1021.0         
21:47 24.03 С  16 км    10/0 6000 м
[средняя] 
+17.0  +6.0  48  +17  +20      1020.6         
22:47 24.03 С  16 км    10/0 6000 м
[средняя] 
+17.0  +8.0  55  +17  +19      1020.3         
23:47 24.03 СЗ  16 км    8/0 6000 м
[средняя] 
+16.0  +10.0  68  +15  +16      1020.3         
01:47 25.03 З  16 км    8/0 6000 м
[средняя] 
+13.0  +7.0  67  +12  +12      1020.0         
12:47 25.03 З  16 км    8/0 2400 м
[средняя] 
+8.0  +5.0  81  +5  +5      1017.6         
13:47 25.03 В  16 км    8/2 900 м
[средняя] 
+11.0  +7.0  76  +9  +9      1017.6         
14:47 25.03   16 км    8/2 900 м
[средняя] 
+13.0  +4.0  54  +13  +13      1018.3         
15:47 25.03 ЮВ  16 км    8/2 900 м
[средняя] 
+14.0  +4.0  51  +13  +14      1019.3         
17:47 25.03 ЮВ  9
{12} 
16 км    8/5 1200 м
[средняя] 
+17.0  +7.0  52  +15  +15      1018.6         
18:47 25.03 Ю  9
{13} 
16 км    10/8 1500 м
[средняя] 
+17.0  +7.0  52  +15  +15      1018.6         
19:47 25.03 Ю  16 км    10/8 1500 м
[средняя] 
+17.0  +8.0  55  +16  +16      1018.3         
20:47 25.03 Ю  16 км    10/8 1200 м
[средняя] 
+17.0  +9.0  59  +16  +16      1017.6         
21:47 25.03 Ю  16 км    10/8 1200 м
[средняя] 
+17.0  +9.0  59  +16  +16      1017.3         
22:47 25.03 ЮЗ  3 км    10/8 1200 м
[средняя] 
+17.0  +9.0  59  +16  +16      1017.3         

 

Местоположение метеостанции Palo Alto Airport: широта 37.4700 долгота -122.1200 высота над уровнем моря 2 м.

В архиве по умолчанию представлена погода в Пало Альто за последние 1-2 суток. Обновление информации о фактической погоде в базе происходит ежечасно! Архивные данные за месяц целиком и за предыдущие месяцы Вы можете получить, выбрав интересующий диапазон дат из раскрывающегося списка и нажав кнопку "Ввод!".

Внимание! Архив погоды МЕТАР в базе сайта хранится не более 60 дней. Нет смысла пытаться выбрать более раннюю дату.

Внимание! Время в таблицах - всемирное. Для получения местного времени необходимо прибавить поправку, которая в Пало Альто равна -8 ч.

Ветер - указаны скорость ветра в м/с и направление, откуда дует ветер: С - северный, СВ - северо-восточный, В - восточный, ЮВ - юго-восточный, Ю - южный, ЮЗ - юго-западный, З - западный, СЗ - северо-западный.
Видимость - горизонтальная дальность видимости в метрах или километрах. При видимости от 1 до 10 км при отсутствии осадков обычно наблюдается дымка, при ухудшении видимости до 1 км и менее - туман. В сухую погоду видимость может ухудшаться дымом, пылью или мглою.
Атмосферные явления - указаны явления, наблюдавшиеся в указанный момент времени.
Облачность - указаны через наклонную черту верхняя и нижняя облачность в баллах и высота нижней границы облаков в метрах. Внимание: облачность, как и прочие метеорологические величины в США измеряются автоматическими метеостанциями. Указанные значения в баллах носят условный характер и показывают процент времени, в течение которого, в среднем, лазерный луч высотомера отражался от облаков обратно.
T - Температура воздуха - температура, измеренная на высоте 2 м над землей.
Td - Температура точки росы - температура, при понижении до которой содержащийся в воздухе водяной пар достигнет насыщения.
f - Относительная влажность воздуха - влажноcть воздуха, измеренная на высоте 2 м над землей.
Te - Эффективная температура - температура, которую ощущает одетый по сезону человек в тени. Характеристика душности погоды. При расчете учитывается влияние влажности воздуха и скорости ветра на теплоощущения человека.
Tes - Эффективная температура на солнце - температура, которую ощущает человек, с поправкой на солнечный нагрев. Характеристика знойности погоды. Зависит от высоты солнца над горизонтом, облачности и скорости ветра. Ночью, в пасмурную погоду, а также при ветре 12 м/с и более поправка равна нулю.
P - Атмосферное давление - приведенное к уровню моря атмосферное давление.
Po - Атмосферное давление - измеренное на уровне метеостанции атмосферное давление.
Tmin - Минимальная температура - минимум температуры воздуха на высоте 2 м над землей.
Tmax - Максимальная температура - максимум температуры воздуха на высоте 2 м над землей.
R - Количество осадков - Количество выпавших осадков за 3 или 6 часов, мм.
SD - Снежный покров - Высота снежного покрова, см.